Hourly Data Report for August 18, 2020

LYTTON RCS
BRITISH COLUMBIA
Current Station Operator: ECCC - MSC

50°13'28.000" N
121°34'55.000" W
225.00 m
1114746
71765
VLY

Download Data

Hourly Data (August 2020)
Hourly Data Report for August 18, 2020
TIME Temp Definition
°C
Dew Point Definition
°C
Rel Hum Definition
%
Wind Dir Definition
10's deg

Wind Spd Definition
km/h
Visibility Definition
km
Stn Press Definition
kPa
Hmdx Definition


Wind Chill Definition


Weather Definition


00:00 25.9 11.5 40 19 27   98.70 28   LegendNANA
01:00 25.0 11.3 42 19 25   98.72 27   LegendNANA
02:00 24.3 12.5 48 19 28   98.74 27   LegendNANA
03:00 23.3 12.8 52 20 24   98.76 26   LegendNANA
04:00 22.3 12.5 54 18 25   98.74 25   LegendNANA
05:00 21.8 12.6 56 19 26   98.76     LegendNANA
06:00 21.4 12.3 56 18 21   98.82     LegendNANA
07:00 20.7 11.2 54 14 15   98.82     LegendNANA
08:00 23.1 11.5 48 16 17   98.79 25   LegendNANA
09:00 26.4 10.8 38 18 25   98.73 28   LegendNANA
10:00 30.3 9.1 27 18 26   98.67 31   LegendNANA
11:00 31.3 8.7 25 16 31   98.66 32   LegendNANA
12:00 33.0 8.1 22 17 31   98.64 33   LegendNANA
13:00 33.7 8.3 21 18 28   98.63 34   LegendNANA
14:00 33.4 7.3 20 18 32   98.63 34   LegendNANA
15:00 33.3 6.2 19 18 28   98.60 33   LegendNANA
16:00 32.2 6.3 20 17 29   98.57 32   LegendNANA
17:00 31.0 5.6 20 17 37   98.55 30   LegendNANA
18:00 29.3 6.6 24 18 26   98.55 29   LegendNANA
19:00 27.9 6.5 26 19 19   98.56 28   LegendNANA
20:00 26.3 8.0 31 20 20   98.61 27   LegendNANA
21:00 25.8 8.2 33 20 20   98.65 26   LegendNANA
22:00 24.8 9.2 37 19 23   98.66 26   LegendNANA
23:00 23.4 11.1 46 19 23   98.68 25   LegendNANA

Notes on Data Quality.

Legend

  • E = Estimated
  • M = Missing
  • NA = Not Available*
  • [empty] = Indicates an unobserved value
Date modified: